Time,TemperatureF,DewpointF,PressureIn,WindDirection,WindDirectionDegrees,WindSpeedMPH,WindSpeedGustMPH,Humidity,HourlyPrecipIn,Conditions,Clouds,dailyrainin,SolarRadiationWatts/m^2,SoftwareType,DateUTC
2013-05-03 00:00:00,62.0,55.0,28.06,ENE,59,4.0,-999.0,78,-99.99,,,-99.99,0.000000,,2013-05-03 05:00:00,
2013-05-03 00:52:00,62.0,55.0,28.06,ENE,59,4.0,-999.0,78,-99.99,,,-99.99,0.000000,,2013-05-03 05:52:00,
2013-05-03 03:00:00,61.0,54.0,27.86,ENE,61,4.0,-999.0,78,-99.99,,,-99.99,0.000000,,2013-05-03 08:00:00,
2013-05-03 03:53:00,61.0,54.0,27.86,ENE,61,4.0,-999.0,78,-99.99,,,-99.99,0.000000,,2013-05-03 08:53:00,
2013-05-03 04:00:00,59.0,54.0,27.93,NE,34,3.0,-999.0,82,-99.99,,,-99.99,0.000000,,2013-05-03 09:00:00,
2013-05-03 04:53:00,59.0,54.0,27.93,NE,34,3.0,-999.0,82,-99.99,,,-99.99,0.000000,,2013-05-03 09:53:00,
2013-05-03 05:00:00,61.0,54.0,28.05,NE,44,2.0,-999.0,80,-99.99,,,-99.99,0.000000,,2013-05-03 10:00:00,
2013-05-03 05:52:00,61.0,54.0,28.05,NE,44,2.0,-999.0,80,-99.99,,,-99.99,0.000000,,2013-05-03 10:52:00,
2013-05-03 06:00:00,61.0,54.0,28.07,NE,53,3.0,-999.0,80,-99.99,,,-99.99,0.740000,,2013-05-03 11:00:00,
2013-05-03 06:52:00,61.0,54.0,28.07,NE,53,3.0,-999.0,80,-99.99,,,-99.99,0.740000,,2013-05-03 11:52:00,
2013-05-03 07:00:00,61.0,55.0,28.24,NE,53,3.0,-999.0,78,-99.99,,,-99.99,30.610001,,2013-05-03 12:00:00,
2013-05-03 07:52:00,61.0,55.0,28.24,NE,53,3.0,-999.0,78,-99.99,,,-99.99,30.610001,,2013-05-03 12:52:00,
2013-05-03 08:00:00,62.0,54.0,28.17,ENE,65,4.0,-999.0,77,-99.99,,,-99.99,59.160000,,2013-05-03 13:00:00,
2013-05-03 08:52:00,62.0,54.0,28.17,ENE,65,4.0,-999.0,77,-99.99,,,-99.99,59.160000,,2013-05-03 13:52:00,
2013-05-03 09:00:00,63.0,55.0,28.20,East,82,7.0,-999.0,75,-99.99,,,-99.99,191.500000,,2013-05-03 14:00:00,
2013-05-03 09:52:00,63.0,55.0,28.20,East,82,7.0,-999.0,75,-99.99,,,-99.99,191.500000,,2013-05-03 14:52:00,
2013-05-03 10:00:00,65.0,54.0,26.85,East,90,8.0,-999.0,69,-99.99,,,-99.99,431.100006,,2013-05-03 15:00:00,
2013-05-03 10:53:00,65.0,54.0,26.85,East,90,8.0,-999.0,69,-99.99,,,-99.99,431.100006,,2013-05-03 15:53:00,
2013-05-03 11:00:00,67.0,55.0,26.80,ESE,103,9.0,-999.0,66,-99.99,,,-99.99,564.099976,,2013-05-03 16:00:00,
2013-05-03 11:52:00,67.0,55.0,26.80,ESE,103,9.0,-999.0,66,-99.99,,,-99.99,564.099976,,2013-05-03 16:52:00,
2013-05-03 12:00:00,68.0,54.0,26.72,ESE,109,9.0,-999.0,61,-99.99,,,-99.99,744.000000,,2013-05-03 17:00:00,
2013-05-03 12:52:00,68.0,54.0,26.72,ESE,109,9.0,-999.0,61,-99.99,,,-99.99,744.000000,,2013-05-03 17:52:00,
2013-05-03 13:00:00,69.0,53.0,26.92,ESE,121,8.0,-999.0,57,-99.99,,,-99.99,651.900024,,2013-05-03 18:00:00,
2013-05-03 13:52:00,69.0,53.0,26.92,ESE,121,8.0,-999.0,57,-99.99,,,-99.99,651.900024,,2013-05-03 18:52:00,
2013-05-03 14:00:00,69.0,54.0,26.87,ESE,107,9.0,-999.0,58,-99.99,,,-99.99,643.799988,,2013-05-03 19:00:00,
2013-05-03 14:52:00,69.0,54.0,26.87,ESE,107,9.0,-999.0,58,-99.99,,,-99.99,643.799988,,2013-05-03 19:52:00,
2013-05-03 15:00:00,68.0,55.0,26.80,ESE,109,9.0,-999.0,64,-99.99,,,-99.99,457.600006,,2013-05-03 20:00:00,
2013-05-03 15:52:00,68.0,55.0,26.80,ESE,109,9.0,-999.0,64,-99.99,,,-99.99,457.600006,,2013-05-03 20:52:00,
2013-05-03 16:00:00,66.0,53.0,26.75,East,94,9.0,-999.0,63,-99.99,,,-99.99,364.700012,,2013-05-03 21:00:00,
2013-05-03 16:53:00,66.0,53.0,26.75,East,94,9.0,-999.0,63,-99.99,,,-99.99,364.700012,,2013-05-03 21:53:00,
2013-05-03 19:00:00,61.0,55.0,26.70,East,87,7.0,-999.0,79,-99.99,,,-99.99,23.290001,,2013-05-04 00:00:00,
2013-05-03 19:52:00,61.0,55.0,26.70,East,87,7.0,-999.0,79,-99.99,,,-99.99,23.290001,,2013-05-04 00:52:00,
2013-05-03 20:00:00,61.0,55.0,27.03,ENE,72,6.0,-999.0,80,-99.99,,,-99.99,0.870000,,2013-05-04 01:00:00,
2013-05-03 20:52:00,61.0,55.0,27.03,ENE,72,6.0,-999.0,80,-99.99,,,-99.99,0.870000,,2013-05-04 01:52:00,
2013-05-03 21:00:00,60.0,56.0,26.89,ENE,57,5.0,-999.0,87,-99.99,,,-99.99,0.000000,,2013-05-04 02:00:00,
2013-05-03 21:52:00,60.0,56.0,26.89,ENE,57,5.0,-999.0,87,-99.99,,,-99.99,0.000000,,2013-05-04 02:52:00,
2013-05-03 22:00:00,60.0,56.0,27.00,ENE,66,5.0,-999.0,86,-99.99,,,-99.99,0.000000,,2013-05-04 03:00:00,
2013-05-03 22:53:00,60.0,56.0,27.00,ENE,66,5.0,-999.0,86,-99.99,,,-99.99,0.000000,,2013-05-04 03:53:00,
2013-05-03 23:00:00,60.0,56.0,27.08,East,80,6.0,-999.0,85,-99.99,,,-99.99,0.000000,,2013-05-04 04:00:00,
2013-05-03 23:52:00,60.0,56.0,27.08,East,80,6.0,-999.0,85,-99.99,,,-99.99,0.000000,,2013-05-04 04:52:00,